SANTA FE DAM CA US current weather conditions

sailwx.info

Wind from 248 at 1 knots gusting 4

Air temperature 20.0° C
Dewpoint 16.4° C

Last reported at 2014-Aug-22 07:57 UTC.
Time now 2014-Aug-22 09:54 UTC

Location: N 34°08' W 117°57'.
View on Google Maps.

See reports from other nearby stations

  
Tides and Currents Weather Stations Pressure Air Temp Water Temp Dewpoint Dewpoint Depression Visibility Wind Speed Wind Dir Waves Ship Positions
date/time (UTC)wind fromknots sea level pressurealtimeterstation pressurevisibilityair tempwater tempwave heightnotes
2014-Aug-22 07:57 248 1 gusting 4 20.0
2014-Aug-22 06:57 240 2 gusting 4 20.0
2014-Aug-22 05:57 260 3 gusting 5 20.6
2014-Aug-22 04:57 231 2 gusting 6 22.2
2014-Aug-22 03:57 206 3 gusting 8 22.2
2014-Aug-22 02:57 227 2 gusting 11 25.0
2014-Aug-22 01:57 237 6 gusting 14 26.7
2014-Aug-22 00:57 218 7 gusting 14 28.9
2014-Aug-21 23:57 231 7 gusting 15 31.7
2014-Aug-21 22:57 228 7 gusting 15 31.7
2014-Aug-21 21:57 221 6 gusting 16 32.8
2014-Aug-21 20:57 057 6 gusting 13 32.2
2014-Aug-21 19:57 204 6 gusting 12 32.2
2014-Aug-21 18:57 276 5 gusting 11 29.4
2014-Aug-21 17:57 260 3 gusting 10 28.9
2014-Aug-21 16:57 278 4 gusting 7 26.1
2014-Aug-21 15:57 240 1 gusting 6 24.4
2014-Aug-21 14:57 234 2 gusting 5 22.2
2014-Aug-21 13:57 238 2 gusting 3 17.8
2014-Aug-21 12:57 250 2 gusting 3 16.7
2014-Aug-21 11:57 259 1 gusting 3 17.2
2014-Aug-21 10:57 237 2 gusting 3 17.2
2014-Aug-21 09:57 206 2 gusting 3 17.8
2014-Aug-21 08:57 231 2 gusting 3 17.8
2014-Aug-21 07:57 219 2 gusting 4 18.9
2014-Aug-21 06:57 217 2 gusting 4 18.9
2014-Aug-21 05:57 231 2 gusting 4 20.6
2014-Aug-21 04:57 217 2 gusting 6 21.1
2014-Aug-21 03:57 231 3 gusting 7 21.7
2014-Aug-21 02:57 205 4 gusting 11 23.9
2014-Aug-21 01:57 241 7 gusting 15 26.1
2014-Aug-21 00:57 216 6 gusting 14 30.6
2014-Aug-20 23:57 222 7 gusting 15 31.1
2014-Aug-20 22:57 231 7 gusting 17 30.6
2014-Aug-20 21:57 243 5 gusting 13 32.8
2014-Aug-20 20:57 258 5 gusting 14 32.2
2014-Aug-20 19:57 023 4 gusting 13 30.6
2014-Aug-20 18:57 206 5 gusting 10 29.4
2014-Aug-20 17:57 158 2 gusting 7 28.3
2014-Aug-20 16:57 204 3 gusting 8 25.6
2014-Aug-20 15:57 139 3 gusting 7 22.8
2014-Aug-20 14:57 343 2 gusting 6 20.6
2014-Aug-20 13:57 014 4 gusting 6 17.2
2014-Aug-20 12:57 357 2 gusting 5 17.8
2014-Aug-20 11:57 049 2 gusting 6 18.3
2014-Aug-20 10:57 196 1 gusting 5 17.8
2014-Aug-20 09:57 125 1 gusting 5 20.0